CW9119 Weather Reports


time (UTC)temp
F
wind
direction
speed
knots
gust
knots
rain 1hr
in
rain 24hr
in
rain mn
in
humidity
%
barometer
mb
20260507212111 44 265 0.0 0.0 0.00 0.59 0.59 93 1013.0
20260507205111 44 265 0.0 0.0 0.00 0.61 0.59 93 1012.7
20260507204110 44 265 0.0 0.0 0.00 0.61 0.59 93 1012.6
20260507203110 45 265 0.0 0.0 0.00 0.61 0.59 93 1012.5
20260507201110 45 265 0.0 0.0 0.00 0.61 0.59 93 1012.3
20260507200110 46 265 0.0 0.0 0.00 0.61 0.59 92 1012.3
20260507194110 46 265 0.0 0.0 0.00 0.67 0.59 93 1012.0
20260507182110 49 265 0.0 0.9 0.01 0.67 0.59 92 1011.1
20260507181110 49 265 0.0 1.7 0.01 0.67 0.59 92 1011.0
20260507180109 49 265 0.0 0.0 0.01 0.67 0.59 91 1011.1
20260507174109 49 265 0.0 0.0 0.01 0.67 0.59 91 1011.1
20260507172109 50 265 0.0 0.0 0.00 0.66 0.58 90 1010.8
20260507165114 51 263 0.9 5.2 0.00 0.68 0.58 89 1010.6
20260507163114 52 267 0.0 3.5 0.00 0.68 0.58 89 1010.7
20260507161114 53 270 0.9 5.2 0.00 0.68 0.58 87 1010.5
20260507155114 55 285 0.0 4.3 0.00 0.68 0.58 85 1010.7
20260507153113 56 288 0.9 5.2 0.00 0.68 0.58 83 1010.4
20260507151113 57 276 2.6 8.7 0.00 0.68 0.58 81 1010.5
20260507150113 57 355 0.9 8.7 0.00 0.68 0.58 83 1010.6
20260507141113 56 300 0.9 6.1 0.00 0.68 0.58 84 1010.2
20260507140113 57 5 0.0 4.3 0.00 0.68 0.58 84 1010.5
20260507135113 58 281 4.3 8.7 0.00 0.68 0.58 82 1010.4
20260507125113 56 162 2.6 9.6 0.00 0.68 0.58 90 1010.1
20260507124112 55 202 0.0 0.9 0.00 0.68 0.58 92 1009.9
20260507123112 55 202 0.0 0.0 0.00 0.68 0.58 92 1009.7
20260507122112 54 202 0.9 4.3 0.02 0.68 0.58 92 1009.7
20260507114112 54 184 0.0 3.5 0.07 0.68 0.58 93 1009.5
20260507113112 53 184 0.0 0.0 0.07 0.68 0.58 91 1009.3
20260507112112 54 153 1.7 9.6 0.06 0.66 0.57 92 1009.3
20260507100112 53 296 0.0 0.0 0.00 0.61 0.51 94 1008.9
20260507093111 53 170 0.0 6.1 0.00 0.61 0.51 95 1008.6
20260507092111 53 189 0.0 0.0 0.00 0.61 0.51 95 1008.5
20260507091111 52 192 0.0 0.0 0.00 0.61 0.51 95 1008.3
20260507090111 52 196 0.9 5.2 0.00 0.61 0.51 95 1008.3
20260507085111 52 146 0.0 5.2 0.00 0.61 0.51 95 1008.2
20260507084111 52 163 0.0 0.0 0.04 0.61 0.51 95 1008.2
20260507082111 52 158 0.0 4.3 0.15 0.61 0.51 95 1007.8
20260507080111 51 158 0.9 5.2 0.15 0.61 0.51 95 1007.4
20260507075111 51 5 0.0 3.5 0.15 0.61 0.51 95 1007.4
20260507071111 51 115 0.0 4.3 0.00 0.46 0.36 95 1007.2
20260507070110 51 115 0.0 0.0 0.00 0.46 0.36 95 1007.2
20260507063110 51 115 0.0 1.7 0.01 0.46 0.36 95 1007.0
20260507062110 50 114 0.0 4.3 0.02 0.46 0.36 95 1006.8
20260507061110 50 114 0.0 0.0 0.02 0.46 0.36 95 1006.7
20260507060110 49 114 0.0 0.9 0.02 0.46 0.36 95 1006.7
20260507055110 49 114 0.0 0.0 0.02 0.46 0.36 95 1006.8
20260507053110 49 114 0.9 5.2 0.03 0.46 0.35 95 1006.7
20260507052110 49 114 0.0 5.2 0.02 0.45 0.35 95 1006.6
20260507050110 49 113 0.0 0.0 0.06 0.45 0.35 94 1006.4
20260507044110 50 113 0.0 0.0 0.06 0.43 0.32 94 1006.6
20260507040110 51 112 0.0 0.0 0.07 0.39 0.28 94 1006.0
20260507032109 51 113 0.0 0.0 0.06 0.34 0.24 94 1005.9
20260507031109 51 112 0.0 0.0 0.04 0.32 0.22 94 1005.9
20260507030109 51 112 0.0 0.0 0.03 0.31 0.21 94 1006.0
20260507025109 51 112 0.0 0.0 0.02 0.31 0.20 94 1006.0
20260507024109 51 112 0.0 0.0 0.01 0.29 0.19 94 1006.0
20260507023109 51 112 0.0 0.0 0.00 0.28 0.18 94 1005.8
20260507021109 51 112 0.0 0.0 0.00 0.28 0.18 94 1005.9
20260507011112 52 112 0.0 0.0 0.00 0.28 0.18 94 1005.6
20260507010112 52 111 0.0 0.9 0.00 0.28 0.18 94 1005.4
20260507004112 52 111 1.7 5.2 0.01 0.30 0.18 94 1005.3
20260507003112 52 107 0.9 5.2 0.01 0.30 0.18 94 1005.1
20260507002112 52 107 0.0 4.3 0.01 0.30 0.18 93 1005.1
20260507000112 52 107 0.0 0.0 0.06 0.30 0.18 93 1004.6
20260506235111 52 107 0.9 6.1 0.07 0.44 0.18 93 1004.2
20260506234111 52 93 0.0 1.7 0.09 0.43 0.17 93 1004.3
20260506233111 52 93 0.9 6.1 0.13 0.43 0.17 93 1004.4
20260506232111 53 140 0.9 4.3 0.15 0.43 0.17 93 1004.4
20260506230111 53 144 0.0 0.0 0.13 0.39 0.13 93 1005.2
20260506225111 53 144 0.0 0.0 0.11 0.44 0.11 93 1005.3
20260506223111 53 144 0.0 0.0 0.05 0.38 0.05 92 1005.3
20260506222111 53 144 0.0 0.0 0.02 0.35 0.02 92 1005.3
20260506215111 53 131 0.0 0.9 0.02 0.34 0.34 91 1004.2